Погода в Матвинур

Россия / Кировская область     57°03′56″N   47°26′11″E
темп.,
°C
ветер,
м/с
пор.,
м/с
влажн.,
%
обл.,
%
осадки,
мм/ч
давл.,
гПа
погр.,
м
24 сентября, пт
пт2400:00+8юв41195100 1.2 1017799
03:00+9юв61493100 3.2 1015898
06:00+8юв51192100 0.7 1014690
09:00+8юв41196100 1.5 1013698
12:00+9юв51192100 0.5 1013680
15:00+9юв41185100 0.5 1013560
18:00+9юв61187100 0.1 1013609
21:00+8ююв51196100 1.0 1013514
25 сентября, сб
сб2500:00+8ююв41096100 1.0 1013569
03:00+7юв51095100 2.9 1012560
06:00+7юв4995100 1.4 1012551
09:00+7вюв3795100 1.8 1012515
12:00+7юв3695100 0.2 1012457
15:00+8юв2595100 0.4 1012325
18:00+7вюв2496100 0.0 1012172
21:00+7юв249696 0.0 1012152
26 сентября, вс
вс2600:00+7юв1195100 0.0 101124
03:00+6в2396100 0.0 101180
06:00+6вюв2395100 0.0 101191
09:00+8в2384100 0.0 1010319
12:00+11всв2370100 0.0 1010748
15:00+12всв3462100 0.0 10101056
18:00+10всв4784100 0.0 1011437
21:00+8св4891100 0.1 1011429
27 сентября, пн
пн2700:00+8всв4895100 1.1 1012529
03:00+8св4994100 2.4 1013608
06:00+7св5993100 0.6 1015866
09:00+6св61193100 1.3 1017692
12:00+6всв51192100 0.7 1020688
15:00+5всв51090100 0.8 1022715
18:00+6всв4983100 0.0 1024722
21:00+6всв41078100 0.0 1026549
28 сентября, вт
вт2800:00+5всв387974 0.0 1027318
03:00+1всв358762 0.0 102899
06:000св34885 0.0 103078
09:00+5св24675 0.0 1030353
12:00+9с224931 0.0 1030935
15:00+10ссз344825 0.0 10291083
18:00+5ссз3469100 0.0 103043
21:00+4ссз2475100 0.0 103084